,,PressureMeas_1m,,PRMeasQMR101_1,,RHStat155_1m_1,,SRMeasQMS101R_1m,,TAStat155_1m_1,,GenWind_1,,GenWind_1,
2018-10-16, 07:00:06,VALID,919.494,VALID,0.0,VALID,99.364,VALID,50.914,VALID,19.801,VALID,296.0,VALID,0.0,
2018-10-16, 07:01:06,VALID,919.518,VALID,0.0,VALID,99.369,VALID,51.193,VALID,19.84,VALID,295.0,VALID,0.0,
2018-10-16, 07:02:06,VALID,919.522,VALID,0.0,VALID,99.347,VALID,52.927,VALID,19.882,VALID,295.0,VALID,0.0,
2018-10-16, 07:03:06,VALID,919.542,VALID,0.0,VALID,99.376,VALID,55.824,VALID,19.919,VALID,249.0,VALID,0.0,
2018-10-16, 07:04:06,VALID,919.568,VALID,0.0,VALID,99.375,VALID,59.136,VALID,19.836,VALID,199.0,VALID,0.0,
2018-10-16, 07:05:06,VALID,919.587,VALID,0.0,VALID,99.35,VALID,62.986,VALID,19.781,VALID,199.0,VALID,0.0,
2018-10-16, 07:06:06,VALID,919.611,VALID,0.0,VALID,99.336,VALID,67.674,VALID,19.813,VALID,199.0,VALID,0.0,
2018-10-16, 07:07:06,VALID,919.635,VALID,0.0,VALID,99.377,VALID,71.079,VALID,19.912,VALID,199.0,VALID,0.0,
2018-10-16, 07:08:06,VALID,919.646,VALID,0.0,VALID,99.366,VALID,73.674,VALID,19.946,VALID,199.0,VALID,0.0,
2018-10-16, 07:09:06,VALID,919.628,VALID,0.0,VALID,99.326,VALID,76.909,VALID,19.911,VALID,200.0,VALID,0.0,
2018-10-16, 07:10:06,VALID,919.654,VALID,0.0,VALID,99.341,VALID,80.681,VALID,19.942,VALID,200.0,VALID,0.0,
2018-10-16, 07:11:06,VALID,919.646,VALID,0.0,VALID,99.344,VALID,84.065,VALID,19.927,VALID,218.0,VALID,0.0,
2018-10-16, 07:12:06,VALID,919.646,VALID,0.0,VALID,99.338,VALID,86.291,VALID,19.89,VALID,229.0,VALID,0.0,
2018-10-16, 07:13:06,VALID,919.657,VALID,0.0,VALID,99.356,VALID,88.009,VALID,19.886,VALID,288.0,VALID,0.0,
2018-10-16, 07:14:06,VALID,919.648,VALID,0.0,VALID,99.348,VALID,92.099,VALID,19.91,VALID,253.0,VALID,0.0,
2018-10-16, 07:15:06,VALID,919.663,VALID,0.0,VALID,99.317,VALID,93.211,VALID,19.794,VALID,240.0,VALID,0.0,
2018-10-16, 07:16:06,VALID,919.696,VALID,0.0,VALID,99.34,VALID,91.152,VALID,19.822,VALID,221.0,VALID,0.0,
2018-10-16, 07:17:06,VALID,919.717,VALID,0.0,VALID,99.343,VALID,89.269,VALID,19.84,VALID,193.0,VALID,0.0,
2018-10-16, 07:18:06,VALID,919.74,VALID,0.0,VALID,99.324,VALID,89.328,VALID,19.785,VALID,184.0,VALID,0.0,
2018-10-16, 07:19:06,VALID,919.771,VALID,0.0,VALID,99.327,VALID,90.139,VALID,19.782,VALID,187.0,VALID,0.0,
2018-10-16, 07:20:06,VALID,919.798,VALID,0.0,VALID,99.322,VALID,90.976,VALID,19.791,VALID,194.0,VALID,0.0,
2018-10-16, 07:21:06,VALID,919.807,VALID,0.0,VALID,99.323,VALID,90.974,VALID,19.878,VALID,225.0,VALID,0.0,
2018-10-16, 07:22:06,VALID,919.81,VALID,0.0,VALID,99.318,VALID,89.06,VALID,19.828,VALID,234.0,VALID,0.0,
2018-10-16, 07:23:06,VALID,919.833,VALID,0.0,VALID,99.319,VALID,85.129,VALID,19.847,VALID,236.0,VALID,0.0,
2018-10-16, 07:24:06,VALID,919.856,VALID,0.0,VALID,99.349,VALID,80.665,VALID,19.976,VALID,256.0,VALID,0.0,
2018-10-16, 07:25:06,VALID,919.868,VALID,0.0,VALID,99.356,VALID,77.387,VALID,20.015,VALID,266.0,VALID,0.0,
2018-10-16, 07:26:06,VALID,919.878,VALID,0.0,VALID,99.331,VALID,74.793,VALID,19.896,VALID,266.0,VALID,0.0,
2018-10-16, 07:27:06,VALID,919.886,VALID,0.0,VALID,99.326,VALID,71.978,VALID,19.87,VALID,266.0,VALID,0.0,
2018-10-16, 07:28:06,VALID,919.89,VALID,0.0,VALID,99.312,VALID,68.672,VALID,19.89,VALID,266.0,VALID,0.0,
2018-10-16, 07:29:06,VALID,919.889,VALID,0.0,VALID,99.318,VALID,66.252,VALID,19.919,VALID,266.0,VALID,0.0,
2018-10-16, 07:30:06,VALID,919.896,VALID,0.0,VALID,99.335,VALID,64.348,VALID,19.968,VALID,266.0,VALID,0.0,
2018-10-16, 07:31:06,VALID,919.889,VALID,0.0,VALID,99.317,VALID,63.05,VALID,19.888,VALID,266.0,VALID,0.0,
2018-10-16, 07:32:06,VALID,919.919,VALID,0.0,VALID,99.325,VALID,62.885,VALID,19.887,VALID,261.0,VALID,0.0,
2018-10-16, 07:33:06,VALID,919.926,VALID,0.0,VALID,99.313,VALID,63.173,VALID,19.891,VALID,253.0,VALID,0.0,
2018-10-16, 07:34:06,VALID,919.94,VALID,0.0,VALID,99.301,VALID,64.834,VALID,19.877,VALID,242.0,VALID,0.0,
2018-10-16, 07:35:06,VALID,919.947,VALID,0.0,VALID,99.31,VALID,67.591,VALID,19.844,VALID,233.0,VALID,0.0,
2018-10-16, 07:36:06,VALID,919.975,VALID,0.0,VALID,99.316,VALID,70.926,VALID,19.871,VALID,233.0,VALID,0.0,
2018-10-16, 07:37:06,VALID,919.974,VALID,0.0,VALID,99.301,VALID,74.285,VALID,19.92,VALID,211.0,VALID,0.0,
2018-10-16, 07:38:06,VALID,919.988,VALID,0.0,VALID,99.298,VALID,75.787,VALID,19.878,VALID,194.0,VALID,0.0,
2018-10-16, 07:39:06,VALID,920.007,VALID,0.0,VALID,99.307,VALID,75.155,VALID,19.852,VALID,194.0,VALID,0.0,
2018-10-16, 07:40:06,VALID,920.021,VALID,0.0,VALID,99.303,VALID,73.313,VALID,19.845,VALID,194.0,VALID,0.0,
2018-10-16, 07:41:06,VALID,920.05,VALID,0.0,VALID,99.291,VALID,71.125,VALID,19.867,VALID,194.0,VALID,0.0,
2018-10-16, 07:42:06,VALID,920.066,VALID,0.0,VALID,99.316,VALID,69.358,VALID,19.933,VALID,194.0,VALID,0.0,
2018-10-16, 07:43:06,VALID,920.086,VALID,0.0,VALID,99.311,VALID,68.724,VALID,20.002,VALID,194.0,VALID,0.0,
2018-10-16, 07:44:06,VALID,920.11,VALID,0.0,VALID,99.334,VALID,69.12,VALID,20.094,VALID,192.0,VALID,0.0,
2018-10-16, 07:45:06,VALID,920.122,VALID,0.0,VALID,99.313,VALID,69.994,VALID,20.144,VALID,192.0,VALID,0.0,
2018-10-16, 07:46:06,VALID,920.125,VALID,0.0,VALID,99.303,VALID,71.031,VALID,20.17,VALID,163.0,VALID,0.0,
2018-10-16, 07:47:06,VALID,920.141,VALID,0.0,VALID,99.313,VALID,71.918,VALID,20.142,VALID,116.0,VALID,0.0,
2018-10-16, 07:48:06,VALID,920.136,VALID,0.0,VALID,99.247,VALID,72.177,VALID,20.051,VALID,116.0,VALID,0.0,
2018-10-16, 07:49:06,VALID,920.126,VALID,0.0,VALID,99.233,VALID,70.899,VALID,20.042,VALID,116.0,VALID,0.0,
2018-10-16, 07:50:06,VALID,920.136,VALID,0.0,VALID,99.266,VALID,68.504,VALID,20.109,VALID,120.0,VALID,0.0,
2018-10-16, 07:51:06,VALID,920.137,VALID,0.0,VALID,99.255,VALID,65.775,VALID,20.027,VALID,126.0,VALID,0.0,
2018-10-16, 07:52:06,VALID,920.128,VALID,0.0,VALID,99.232,VALID,63.018,VALID,20.069,VALID,123.0,VALID,0.0,
2018-10-16, 07:53:06,VALID,920.126,VALID,0.0,VALID,99.215,VALID,60.52,VALID,20.082,VALID,129.0,VALID,0.0,
2018-10-16, 07:54:06,VALID,920.139,VALID,0.0,VALID,99.177,VALID,58.596,VALID,20.049,VALID,122.0,VALID,0.0,
2018-10-16, 07:55:06,VALID,920.15,VALID,0.0,VALID,99.188,VALID,57.927,VALID,20.089,VALID,133.0,VALID,0.0,
2018-10-16, 07:56:06,VALID,920.17,VALID,0.0,VALID,99.172,VALID,58.213,VALID,20.09,VALID,136.0,VALID,0.0,
2018-10-16, 07:57:06,VALID,920.18,VALID,0.0,VALID,99.155,VALID,58.804,VALID,20.084,VALID,87.0,VALID,0.0,
2018-10-16, 07:58:06,VALID,920.187,VALID,0.0,VALID,99.114,VALID,59.362,VALID,20.082,VALID,98.0,VALID,0.0,
2018-10-16, 07:59:06,VALID,920.215,VALID,0.0,VALID,99.111,VALID,60.083,VALID,20.085,VALID,104.0,VALID,0.0,
2018-10-16, 08:00:06,VALID,920.202,VALID,0.0,VALID,99.065,VALID,61.76,VALID,20.081,VALID,99.0,VALID,0.0,
2018-10-16, 08:01:06,VALID,920.212,VALID,0.0,VALID,99.022,VALID,65.665,VALID,20.03,VALID,97.0,VALID,0.0,
2018-10-16, 08:02:06,VALID,920.181,VALID,0.0,VALID,98.963,VALID,70.883,VALID,19.991,VALID,98.0,VALID,0.0,
2018-10-16, 08:03:06,VALID,920.159,VALID,0.0,VALID,99.033,VALID,77.045,VALID,20.03,VALID,103.0,VALID,0.0,
2018-10-16, 08:04:06,VALID,920.137,VALID,0.0,VALID,99.014,VALID,84.787,VALID,20.037,VALID,79.0,VALID,0.0,
2018-10-16, 08:05:06,VALID,920.098,VALID,0.0,VALID,99.01,VALID,93.923,VALID,20.061,VALID,100.0,VALID,0.0,
2018-10-16, 08:06:06,VALID,920.096,VALID,0.0,VALID,98.994,VALID,104.486,VALID,20.062,VALID,102.0,VALID,0.0,
2018-10-16, 08:07:06,VALID,920.086,VALID,0.0,VALID,98.911,VALID,112.477,VALID,19.993,VALID,100.0,VALID,0.0,
2018-10-16, 08:08:06,VALID,920.086,VALID,0.0,VALID,98.942,VALID,118.421,VALID,20.048,VALID,78.0,VALID,0.0,
2018-10-16, 08:09:06,VALID,920.074,VALID,0.0,VALID,98.919,VALID,127.422,VALID,20.053,VALID,79.0,VALID,0.0,
2018-10-16, 08:10:06,VALID,920.079,VALID,0.0,VALID,98.869,VALID,145.91,VALID,20.052,VALID,95.0,VALID,0.0,
2018-10-16, 08:11:06,VALID,920.062,VALID,0.0,VALID,98.924,VALID,186.689,VALID,20.16,VALID,144.0,VALID,0.0,
2018-10-16, 08:12:06,VALID,920.069,VALID,0.0,VALID,98.963,VALID,214.417,VALID,20.272,VALID,146.0,VALID,0.0,
2018-10-16, 08:13:06,VALID,920.061,VALID,0.0,VALID,98.883,VALID,216.567,VALID,20.245,VALID,184.0,VALID,0.0,
2018-10-16, 08:14:06,VALID,920.088,VALID,0.0,VALID,98.766,VALID,249.117,VALID,20.184,VALID,185.0,VALID,0.0,
2018-10-16, 08:15:06,VALID,920.076,VALID,0.0,VALID,98.62,VALID,273.661,VALID,20.15,VALID,192.0,VALID,0.0,
2018-10-16, 08:16:06,VALID,920.09,VALID,0.0,VALID,98.667,VALID,266.207,VALID,20.224,VALID,186.0,VALID,0.0,
2018-10-16, 08:17:06,VALID,920.103,VALID,0.0,VALID,98.626,VALID,253.672,VALID,20.281,VALID,161.0,VALID,0.0,
2018-10-16, 08:18:06,VALID,920.104,VALID,0.0,VALID,98.635,VALID,234.77,VALID,20.37,VALID,161.0,VALID,0.0,
2018-10-16, 08:19:06,VALID,920.123,VALID,0.0,VALID,98.364,VALID,227.941,VALID,20.292,VALID,179.0,VALID,0.0,
2018-10-16, 08:20:06,VALID,920.156,VALID,0.0,VALID,98.146,VALID,231.743,VALID,20.288,VALID,179.0,VALID,0.0,
2018-10-16, 08:21:06,VALID,920.182,VALID,0.0,VALID,97.776,VALID,239.891,VALID,20.258,VALID,191.0,VALID,0.0,
2018-10-16, 08:22:06,VALID,920.207,VALID,0.0,VALID,97.431,VALID,245.849,VALID,20.272,VALID,185.0,VALID,0.0,
2018-10-16, 08:23:06,VALID,920.231,VALID,0.0,VALID,97.263,VALID,255.417,VALID,20.364,VALID,177.0,VALID,0.0,
2018-10-16, 08:24:06,VALID,920.264,VALID,0.0,VALID,97.156,VALID,273.095,VALID,20.417,VALID,191.0,VALID,0.0,
2018-10-16, 08:25:06,VALID,920.258,VALID,0.0,VALID,96.898,VALID,292.022,VALID,20.455,VALID,177.0,VALID,0.0,
2018-10-16, 08:26:06,VALID,920.28,VALID,0.0,VALID,96.551,VALID,301.764,VALID,20.448,VALID,193.0,VALID,0.0,
2018-10-16, 08:27:06,VALID,920.272,VALID,0.0,VALID,96.398,VALID,297.431,VALID,20.511,VALID,206.0,VALID,0.0,
2018-10-16, 08:28:06,VALID,920.27,VALID,0.0,VALID,96.839,VALID,290.519,VALID,20.664,VALID,152.0,VALID,0.0,
2018-10-16, 08:29:06,VALID,920.281,VALID,0.0,VALID,96.531,VALID,286.402,VALID,20.77,VALID,178.0,VALID,0.0,
2018-10-16, 08:30:06,VALID,920.286,VALID,0.0,VALID,96.319,VALID,284.233,VALID,20.904,VALID,143.0,VALID,0.0,
2018-10-16, 08:31:06,VALID,920.278,VALID,0.0,VALID,94.884,VALID,279.438,VALID,20.921,VALID,117.0,VALID,0.0,
2018-10-16, 08:32:06,VALID,920.288,VALID,0.0,VALID,94.573,VALID,272.21,VALID,21.018,VALID,157.0,VALID,0.0,
2018-10-16, 08:33:06,VALID,920.292,VALID,0.0,VALID,94.483,VALID,263.459,VALID,21.093,VALID,134.0,VALID,0.0,
2018-10-16, 08:34:06,VALID,920.308,VALID,0.0,VALID,93.851,VALID,257.17,VALID,21.127,VALID,113.0,VALID,0.0,
2018-10-16, 08:35:06,VALID,920.3,VALID,0.0,VALID,94.081,VALID,252.756,VALID,21.197,VALID,109.0,VALID,0.0,
2018-10-16, 08:36:06,VALID,920.267,VALID,0.0,VALID,93.176,VALID,250.117,VALID,21.232,VALID,124.0,VALID,0.0,
2018-10-16, 08:37:06,VALID,920.321,VALID,0.0,VALID,91.741,VALID,245.74,VALID,21.231,VALID,110.0,VALID,0.0,
2018-10-16, 08:38:06,VALID,920.316,VALID,0.0,VALID,91.349,VALID,243.348,VALID,21.209,VALID,132.0,VALID,0.0,
2018-10-16, 08:39:06,VALID,920.313,VALID,0.0,VALID,91.958,VALID,242.249,VALID,21.258,VALID,128.0,VALID,0.0,
2018-10-16, 08:40:06,VALID,920.329,VALID,0.0,VALID,92.622,VALID,241.392,VALID,21.356,VALID,132.0,VALID,0.0,
2018-10-16, 08:41:06,VALID,920.323,VALID,0.0,VALID,90.782,VALID,238.776,VALID,21.369,VALID,139.0,VALID,0.0,
2018-10-16, 08:42:06,VALID,920.347,VALID,0.0,VALID,90.904,VALID,243.148,VALID,21.397,VALID,111.0,VALID,0.0,
2018-10-16, 08:43:06,VALID,920.35,VALID,0.0,VALID,89.878,VALID,239.764,VALID,21.379,VALID,123.0,VALID,0.0,
2018-10-16, 08:44:06,VALID,920.355,VALID,0.0,VALID,90.663,VALID,252.567,VALID,21.431,VALID,157.0,VALID,0.0,
2018-10-16, 08:45:06,VALID,920.365,VALID,0.0,VALID,90.818,VALID,249.395,VALID,21.53,VALID,103.0,VALID,0.0,
2018-10-16, 08:46:06,VALID,920.369,VALID,0.0,VALID,88.539,VALID,252.521,VALID,21.466,VALID,80.0,VALID,0.0,
2018-10-16, 08:47:06,VALID,920.358,VALID,0.0,VALID,89.322,VALID,253.491,VALID,21.426,VALID,107.0,VALID,0.0,
2018-10-16, 08:48:06,VALID,920.349,VALID,0.0,VALID,89.303,VALID,255.376,VALID,21.473,VALID,161.0,VALID,0.0,
2018-10-16, 08:49:06,VALID,920.357,VALID,0.0,VALID,90.007,VALID,258.639,VALID,21.594,VALID,146.0,VALID,0.0,
2018-10-16, 08:50:06,VALID,920.358,VALID,0.0,VALID,89.559,VALID,269.07,VALID,21.672,VALID,184.0,VALID,0.0,
2018-10-16, 08:51:06,VALID,920.372,VALID,0.0,VALID,88.807,VALID,286.612,VALID,21.664,VALID,180.0,VALID,0.0,
2018-10-16, 08:52:06,VALID,920.384,VALID,0.0,VALID,89.834,VALID,295.211,VALID,21.726,VALID,113.0,VALID,0.0,
2018-10-16, 08:53:06,VALID,920.393,VALID,0.0,VALID,89.143,VALID,319.457,VALID,21.827,VALID,122.0,VALID,0.0,
2018-10-16, 08:54:06,VALID,920.404,VALID,0.0,VALID,88.522,VALID,368.522,VALID,21.881,VALID,126.0,VALID,0.0,
2018-10-16, 08:55:06,VALID,920.391,VALID,0.0,VALID,88.271,VALID,360.102,VALID,21.945,VALID,130.0,VALID,0.0,
2018-10-16, 08:56:06,VALID,920.389,VALID,0.0,VALID,88.409,VALID,416.108,VALID,22.072,VALID,8.0,VALID,0.0,
2018-10-16, 08:57:06,VALID,920.38,VALID,0.0,VALID,86.979,VALID,398.734,VALID,22.168,VALID,36.0,VALID,0.0,
2018-10-16, 08:58:06,VALID,920.379,VALID,0.0,VALID,86.553,VALID,357.821,VALID,22.195,VALID,37.0,VALID,0.0,
2018-10-16, 08:59:06,VALID,920.396,VALID,0.0,VALID,87.836,VALID,347.432,VALID,22.2,VALID,23.0,VALID,0.0,
2018-10-16, 09:00:06,VALID,920.381,VALID,0.0,VALID,87.971,VALID,350.361,VALID,22.232,VALID,46.0,VALID,0.0,
2018-10-16, 09:01:06,VALID,920.398,VALID,0.0,VALID,87.486,VALID,383.493,VALID,22.247,VALID,33.0,VALID,0.0,
2018-10-16, 09:02:06,VALID,920.409,VALID,0.0,VALID,86.46,VALID,353.299,VALID,22.157,VALID,31.0,VALID,0.0,
2018-10-16, 09:03:06,VALID,920.42,VALID,0.0,VALID,86.131,VALID,354.042,VALID,22.015,VALID,357.0,VALID,0.0,
2018-10-16, 09:04:06,VALID,920.421,VALID,0.0,VALID,87.599,VALID,342.432,VALID,22.016,VALID,304.0,VALID,0.0,
2018-10-16, 09:05:06,VALID,920.424,VALID,0.0,VALID,87.327,VALID,329.634,VALID,22.117,VALID,36.0,VALID,0.0,
2018-10-16, 09:06:06,VALID,920.45,VALID,0.0,VALID,85.992,VALID,324.531,VALID,22.189,VALID,67.0,VALID,0.0,
2018-10-16, 09:07:06,VALID,920.444,VALID,0.0,VALID,85.841,VALID,325.051,VALID,22.277,VALID,78.0,VALID,0.0,
2018-10-16, 09:08:06,VALID,920.473,VALID,0.0,VALID,86.469,VALID,337.712,VALID,22.441,VALID,54.0,VALID,0.0,
2018-10-16, 09:09:06,VALID,920.458,VALID,0.0,VALID,87.422,VALID,359.408,VALID,22.645,VALID,30.0,VALID,0.0,
2018-10-16, 09:10:06,VALID,920.472,VALID,0.0,VALID,85.187,VALID,362.303,VALID,22.718,VALID,51.0,VALID,0.0,
2018-10-16, 09:11:06,VALID,920.494,VALID,0.0,VALID,84.666,VALID,370.935,VALID,22.724,VALID,55.0,VALID,0.0,
2018-10-16, 09:12:06,VALID,920.5,VALID,0.0,VALID,84.589,VALID,383.264,VALID,22.847,VALID,43.0,VALID,0.0,
2018-10-16, 09:13:06,VALID,920.513,VALID,0.0,VALID,84.823,VALID,391.929,VALID,22.951,VALID,45.0,VALID,0.0,
2018-10-16, 09:14:06,VALID,920.526,VALID,0.0,VALID,83.722,VALID,407.239,VALID,22.945,VALID,61.0,VALID,0.0,
2018-10-16, 09:15:06,VALID,920.533,VALID,0.0,VALID,83.609,VALID,427.342,VALID,23.016,VALID,88.0,VALID,0.0,
2018-10-16, 09:16:06,VALID,920.542,VALID,0.0,VALID,83.81,VALID,449.255,VALID,23.185,VALID,89.0,VALID,0.0,
2018-10-16, 09:17:06,VALID,920.546,VALID,0.0,VALID,83.543,VALID,427.385,VALID,23.372,VALID,177.0,VALID,0.0,
2018-10-16, 09:18:06,VALID,920.535,VALID,0.0,VALID,84.44,VALID,445.722,VALID,23.309,VALID,272.0,VALID,0.0,
2018-10-16, 09:19:06,VALID,920.558,VALID,0.0,VALID,84.068,VALID,430.656,VALID,23.181,VALID,247.0,VALID,0.0,
2018-10-16, 09:20:06,VALID,920.561,VALID,0.0,VALID,83.612,VALID,413.596,VALID,23.027,VALID,226.0,VALID,0.0,
2018-10-16, 09:21:06,VALID,920.583,VALID,0.0,VALID,84.479,VALID,396.122,VALID,22.885,VALID,225.0,VALID,0.0,
2018-10-16, 09:22:06,VALID,920.595,VALID,0.0,VALID,84.559,VALID,362.284,VALID,22.804,VALID,195.0,VALID,0.0,
2018-10-16, 09:23:06,VALID,920.596,VALID,0.0,VALID,85.742,VALID,351.776,VALID,22.769,VALID,230.0,VALID,0.0,
2018-10-16, 09:24:06,VALID,920.573,VALID,0.0,VALID,85.623,VALID,366.417,VALID,22.821,VALID,288.0,VALID,0.0,
2018-10-16, 09:25:06,VALID,920.553,VALID,0.0,VALID,85.245,VALID,381.221,VALID,22.778,VALID,281.0,VALID,0.0,
2018-10-16, 09:26:06,VALID,920.514,VALID,0.0,VALID,85.91,VALID,379.078,VALID,22.703,VALID,259.0,VALID,0.0,
2018-10-16, 09:27:06,VALID,920.515,VALID,0.0,VALID,86.401,VALID,377.916,VALID,22.712,VALID,245.0,VALID,0.0,
2018-10-16, 09:28:06,VALID,920.498,VALID,0.0,VALID,85.418,VALID,369.726,VALID,22.677,VALID,230.0,VALID,0.0,
2018-10-16, 09:29:06,VALID,920.507,VALID,0.0,VALID,86.327,VALID,357.269,VALID,22.543,VALID,224.0,VALID,0.0,
2018-10-16, 09:30:06,VALID,920.517,VALID,0.0,VALID,87.428,VALID,346.687,VALID,22.576,VALID,260.0,VALID,0.0,
2018-10-16, 09:31:06,VALID,920.532,VALID,0.0,VALID,86.954,VALID,341.333,VALID,22.674,VALID,279.0,VALID,0.0,
2018-10-16, 09:32:06,VALID,920.537,VALID,0.0,VALID,85.776,VALID,352.17,VALID,22.718,VALID,239.0,VALID,0.0,
2018-10-16, 09:33:06,VALID,920.533,VALID,0.0,VALID,85.037,VALID,387.511,VALID,22.625,VALID,233.0,VALID,0.0,
2018-10-16, 09:34:06,VALID,920.539,VALID,0.0,VALID,86.206,VALID,496.216,VALID,22.549,VALID,234.0,VALID,0.0,
2018-10-16, 09:35:06,VALID,920.542,VALID,0.0,VALID,86.747,VALID,643.106,VALID,22.587,VALID,246.0,VALID,0.0,
2018-10-16, 09:36:06,VALID,920.536,VALID,0.0,VALID,87.258,VALID,575.103,VALID,22.818,VALID,226.0,VALID,0.0,
2018-10-16, 09:37:06,VALID,920.533,VALID,0.0,VALID,85.393,VALID,470.055,VALID,22.904,VALID,222.0,VALID,0.0,
2018-10-16, 09:38:06,VALID,920.55,VALID,0.0,VALID,85.763,VALID,442.449,VALID,22.95,VALID,268.0,VALID,0.0,
2018-10-16, 09:39:06,VALID,920.55,VALID,0.0,VALID,83.511,VALID,417.9,VALID,23.228,VALID,307.0,VALID,0.0,
2018-10-16, 09:40:06,VALID,920.544,VALID,0.0,VALID,82.634,VALID,391.056,VALID,23.475,VALID,317.0,VALID,0.0,
2018-10-16, 09:41:06,VALID,920.556,VALID,0.0,VALID,82.895,VALID,391.335,VALID,23.497,VALID,215.0,VALID,0.0,
2018-10-16, 09:42:06,VALID,920.55,VALID,0.0,VALID,82.248,VALID,422.036,VALID,23.233,VALID,233.0,VALID,0.0,
2018-10-16, 09:43:06,VALID,920.542,VALID,0.0,VALID,83.04,VALID,482.494,VALID,22.972,VALID,231.0,VALID,0.0,
2018-10-16, 09:44:06,VALID,920.514,VALID,0.0,VALID,83.974,VALID,395.679,VALID,22.842,VALID,211.0,VALID,0.0,
2018-10-16, 09:45:06,VALID,920.528,VALID,0.0,VALID,83.997,VALID,374.009,VALID,22.824,VALID,241.0,VALID,0.0,
2018-10-16, 09:46:06,VALID,920.513,VALID,0.0,VALID,83.74,VALID,438.482,VALID,22.881,VALID,204.0,VALID,0.0,
2018-10-16, 09:47:06,VALID,920.521,VALID,0.0,VALID,83.141,VALID,533.059,VALID,23.14,VALID,236.0,VALID,0.0,
2018-10-16, 09:48:06,VALID,920.513,VALID,0.0,VALID,83.021,VALID,519.542,VALID,23.392,VALID,316.0,VALID,0.0,
2018-10-16, 09:49:06,VALID,920.503,VALID,0.0,VALID,81.69,VALID,423.746,VALID,23.53,VALID,4.0,VALID,0.0,
2018-10-16, 09:50:06,VALID,920.513,VALID,0.0,VALID,82.035,VALID,478.639,VALID,23.404,VALID,7.0,VALID,0.0,
2018-10-16, 09:51:06,VALID,920.527,VALID,0.0,VALID,82.571,VALID,448.463,VALID,23.342,VALID,359.0,VALID,0.0,
2018-10-16, 09:52:06,VALID,920.54,VALID,0.0,VALID,81.366,VALID,423.855,VALID,23.358,VALID,355.0,VALID,0.0,
2018-10-16, 09:53:06,VALID,920.573,VALID,0.0,VALID,80.021,VALID,367.875,VALID,23.42,VALID,8.0,VALID,0.0,
2018-10-16, 09:54:06,VALID,920.577,VALID,0.0,VALID,80.104,VALID,352.902,VALID,23.446,VALID,44.0,VALID,0.0,
2018-10-16, 09:55:06,VALID,920.569,VALID,0.0,VALID,80.14,VALID,348.776,VALID,23.625,VALID,56.0,VALID,0.0,
2018-10-16, 09:56:06,VALID,920.567,VALID,0.0,VALID,82.113,VALID,356.521,VALID,23.918,VALID,35.0,VALID,0.0,
2018-10-16, 09:57:06,VALID,920.574,VALID,0.0,VALID,81.417,VALID,373.691,VALID,24.12,VALID,355.0,VALID,0.0,
2018-10-16, 09:58:06,VALID,920.552,VALID,0.0,VALID,80.115,VALID,389.615,VALID,24.187,VALID,1.0,VALID,0.0,
2018-10-16, 09:59:06,VALID,920.537,VALID,0.0,VALID,78.124,VALID,413.438,VALID,24.25,VALID,351.0,VALID,0.0,
2018-10-16, 10:00:06,VALID,920.505,VALID,0.0,VALID,77.819,VALID,491.19,VALID,24.369,VALID,330.0,VALID,0.0,
2018-10-16, 10:01:06,VALID,920.503,VALID,0.0,VALID,75.643,VALID,532.4,VALID,24.554,VALID,343.0,VALID,0.0,
2018-10-16, 10:02:06,VALID,920.505,VALID,0.0,VALID,75.443,VALID,522.562,VALID,24.784,VALID,344.0,VALID,0.0,
2018-10-16, 10:03:06,VALID,920.499,VALID,0.0,VALID,74.915,VALID,506.409,VALID,25.058,VALID,314.0,VALID,0.0,
2018-10-16, 10:04:06,VALID,920.492,VALID,0.0,VALID,75.802,VALID,515.522,VALID,25.144,VALID,356.0,VALID,0.0,
2018-10-16, 10:05:06,VALID,920.477,VALID,0.0,VALID,75.69,VALID,504.388,VALID,25.188,VALID,246.0,VALID,0.0,
2018-10-16, 10:06:06,VALID,920.49,VALID,0.0,VALID,73.711,VALID,479.76,VALID,25.007,VALID,238.0,VALID,0.0,
2018-10-16, 10:07:06,VALID,920.492,VALID,0.0,VALID,74.585,VALID,470.143,VALID,24.697,VALID,294.0,VALID,0.0,
2018-10-16, 10:08:06,VALID,920.512,VALID,0.0,VALID,76.174,VALID,476.387,VALID,24.696,VALID,300.0,VALID,0.0,
2018-10-16, 10:09:06,VALID,920.532,VALID,0.0,VALID,74.665,VALID,468.044,VALID,24.478,VALID,264.0,VALID,0.0,
2018-10-16, 10:10:06,VALID,920.539,VALID,0.0,VALID,76.287,VALID,463.646,VALID,24.123,VALID,296.0,VALID,0.0,
2018-10-16, 10:11:06,VALID,920.541,VALID,0.0,VALID,75.424,VALID,463.703,VALID,24.003,VALID,282.0,VALID,0.0,
2018-10-16, 10:12:06,VALID,920.54,VALID,0.0,VALID,73.938,VALID,457.602,VALID,23.83,VALID,270.0,VALID,0.0,
2018-10-16, 10:13:06,VALID,920.538,VALID,0.0,VALID,75.695,VALID,468.372,VALID,23.718,VALID,284.0,VALID,0.0,
2018-10-16, 10:14:06,VALID,920.527,VALID,0.0,VALID,76.629,VALID,476.816,VALID,23.744,VALID,279.0,VALID,0.0,
2018-10-16, 10:15:06,VALID,920.513,VALID,0.0,VALID,76.383,VALID,463.089,VALID,23.916,VALID,233.0,VALID,0.0,
2018-10-16, 10:16:06,VALID,920.508,VALID,0.0,VALID,75.409,VALID,480.026,VALID,24.011,VALID,245.0,VALID,0.0,
2018-10-16, 10:17:06,VALID,920.508,VALID,0.0,VALID,77.09,VALID,507.935,VALID,24.132,VALID,302.0,VALID,0.0,
2018-10-16, 10:18:06,VALID,920.493,VALID,0.0,VALID,76.28,VALID,538.102,VALID,24.287,VALID,288.0,VALID,0.0,
2018-10-16, 10:19:06,VALID,920.478,VALID,0.0,VALID,75.158,VALID,555.105,VALID,24.418,VALID,296.0,VALID,0.0,
2018-10-16, 10:20:06,VALID,920.451,VALID,0.0,VALID,75.62,VALID,566.134,VALID,24.728,VALID,336.0,VALID,0.0,
2018-10-16, 10:21:06,VALID,920.441,VALID,0.0,VALID,77.038,VALID,554.838,VALID,24.949,VALID,306.0,VALID,0.0,
2018-10-16, 10:22:06,VALID,920.427,VALID,0.0,VALID,76.768,VALID,547.629,VALID,24.976,VALID,290.0,VALID,0.0,
2018-10-16, 10:23:06,VALID,920.397,VALID,0.0,VALID,76.402,VALID,559.029,VALID,24.969,VALID,279.0,VALID,0.0,
2018-10-16, 10:24:06,VALID,920.375,VALID,0.0,VALID,76.766,VALID,584.88,VALID,25.056,VALID,249.0,VALID,0.0,
2018-10-16, 10:25:06,VALID,920.363,VALID,0.0,VALID,79.055,VALID,629.393,VALID,25.202,VALID,338.0,VALID,0.0,
2018-10-16, 10:26:06,VALID,920.368,VALID,0.0,VALID,78.739,VALID,609.091,VALID,25.386,VALID,346.0,VALID,0.0,
2018-10-16, 10:27:06,VALID,920.369,VALID,0.0,VALID,77.627,VALID,620.424,VALID,25.451,VALID,336.0,VALID,0.0,
2018-10-16, 10:28:06,VALID,920.363,VALID,0.0,VALID,76.124,VALID,629.75,VALID,25.411,VALID,350.0,VALID,0.0,
2018-10-16, 10:29:06,VALID,920.364,VALID,0.0,VALID,76.827,VALID,577.627,VALID,25.25,VALID,8.0,VALID,0.0,
2018-10-16, 10:30:06,VALID,920.377,VALID,0.0,VALID,77.414,VALID,618.887,VALID,24.914,VALID,356.0,VALID,0.0,
2018-10-16, 10:31:06,VALID,920.39,VALID,0.0,VALID,79.164,VALID,631.766,VALID,24.712,VALID,14.0,VALID,0.0,
2018-10-16, 10:32:06,VALID,920.371,VALID,0.0,VALID,78.884,VALID,655.904,VALID,24.734,VALID,44.0,VALID,0.0,
2018-10-16, 10:33:06,VALID,920.357,VALID,0.0,VALID,79.306,VALID,647.9,VALID,24.995,VALID,42.0,VALID,0.0,
2018-10-16, 10:34:06,VALID,920.339,VALID,0.0,VALID,78.382,VALID,657.739,VALID,25.245,VALID,23.0,VALID,0.0,
2018-10-16, 10:35:06,VALID,920.315,VALID,0.0,VALID,76.356,VALID,637.119,VALID,25.315,VALID,246.0,VALID,0.0,
2018-10-16, 10:36:06,VALID,920.292,VALID,0.0,VALID,74.242,VALID,626.786,VALID,25.443,VALID,159.0,VALID,0.0,
2018-10-16, 10:37:06,VALID,920.272,VALID,0.0,VALID,74.379,VALID,637.469,VALID,25.583,VALID,186.0,VALID,0.0,
2018-10-16, 10:38:06,VALID,920.262,VALID,0.0,VALID,75.2,VALID,664.209,VALID,25.578,VALID,235.0,VALID,0.0,
2018-10-16, 10:39:06,VALID,920.245,VALID,0.0,VALID,74.36,VALID,653.438,VALID,25.455,VALID,273.0,VALID,0.0,
2018-10-16, 10:40:06,VALID,920.258,VALID,0.0,VALID,76.066,VALID,644.067,VALID,25.382,VALID,303.0,VALID,0.0,